Bigfork, MN

2:24 AM CST on December 10, 2016 (GMT -0600)
Bigfork Municipal

Weather History for KFOZ - January, 2013

Change the Weather History Date:

Thursday, January 31, 2013

  Actual Average (KGPZ) Record (KGPZ)
Temperature  
Mean Temperature -8 °F -  
Max Temperature 1 °F 20 °F 47 °F (1989)
Min Temperature -18 °F 0 °F -36 °F (1918)
Degree Days  
Heating Degree Days 74    
Moisture  
Dew Point -11 °F    
Average Humidity 71    
Maximum Humidity 85    
Minimum Humidity 60    
Precipitation  
Precipitation 0.00 in - - ()
Sea Level Pressure  
Sea Level Pressure 29.93 in    
Wind  
Wind Speed 6 mph (NW)    
Max Wind Speed 12 mph    
Max Gust Speed 20 mph    
Visibility 7 miles    
Events Snow    
Averages and records for this station are not official NWS values.
T = Trace of Precipitation, MM = Missing Value Source: NWS Daily Summary

Daily Weather History Graph

Daily Weather History Graph

Search for Another Location

Airport or City:

Trip Planner

Search our weather history database for the weather conditions in past years. The results will help you decide how hot, cold, wet, or windy it might be!

Date:

Astronomy

Jan. 31, 2013 Rise Set
Actual Time 7:42 AM CST 5:14 PM CST
Civil Twilight 7:09 AM CST 5:47 PM CST
Nautical Twilight 6:32 AM CST 6:24 PM CST
Astronomical Twilight 5:56 AM CST 7:00 PM CST
Moon 10:44 PM CST (1/31) 9:17 AM CST (1/31)
Length of Visible Light 10h 38m
Length of Day
9h 31m
Waning Gibbous, 79% of the Moon is Illuminated
Jan 31
Waning Gibbous
Feb 3
Last Quarter
Feb 10
New
Feb 17
First Quarter
Feb 25
Full

Hourly Weather History & Observations

Time (CST) Temp. Windchill Dew Point Humidity Pressure Visibility Wind Dir Wind Speed Gust Speed Precip Events Conditions
12:13 AM 1.4 °F -6.2 °F -2.2 °F 85% 29.70 in 5.0 mi NW 3.5 mph - N/A Snow Light Snow
12:33 AM 1.4 °F -8.3 °F -2.2 °F 85% 29.70 in 7.0 mi NW 4.6 mph - N/A Snow Light Snow
12:53 AM 1.4 °F -6.2 °F -4.0 °F 78% 29.70 in 10.0 mi NW 3.5 mph - N/A Snow Light Snow
1:13 AM 1.4 °F -8.3 °F -4.0 °F 78% 29.70 in 10.0 mi NW 4.6 mph - N/A Snow Light Snow
1:33 AM 1.4 °F -6.2 °F -5.8 °F 72% 29.71 in 10.0 mi NW 3.5 mph - N/A Snow Light Snow
1:53 AM -0.4 °F -13.4 °F -5.8 °F 78% 29.72 in 7.0 mi NW 6.9 mph - N/A Snow Light Snow
2:13 AM 1.4 °F -12.5 °F -5.8 °F 72% 29.73 in 4.0 mi NW 8.1 mph - N/A Snow Light Snow
2:33 AM -0.4 °F -13.4 °F -5.8 °F 78% 29.74 in 4.0 mi NW 6.9 mph - N/A Snow Light Snow
2:53 AM -0.4 °F -13.4 °F -5.8 °F 78% 29.74 in 4.0 mi NW 6.9 mph - N/A Snow Light Snow
3:13 AM -0.4 °F -13.4 °F -5.8 °F 78% 29.74 in 2.5 mi NW 6.9 mph - N/A Snow Light Snow
3:33 AM -0.4 °F -12.0 °F -5.8 °F 78% 29.74 in 3.0 mi NNW 5.8 mph - N/A Snow Light Snow
3:53 AM -0.4 °F -12.0 °F -5.8 °F 78% 29.75 in 3.0 mi NW 5.8 mph - N/A Snow Light Snow
4:13 AM -0.4 °F -12.0 °F -7.6 °F 72% 29.76 in 3.0 mi NW 5.8 mph - N/A Snow Light Snow
4:33 AM -0.4 °F -12.0 °F -7.6 °F 72% 29.77 in 5.0 mi NW 5.8 mph - N/A Snow Light Snow
4:53 AM -0.4 °F -13.4 °F -7.6 °F 72% 29.78 in 5.0 mi NW 6.9 mph - N/A Snow Light Snow
5:13 AM -2.2 °F -15.6 °F -7.6 °F 78% 29.78 in 4.0 mi NW 6.9 mph - N/A Snow Light Snow
5:33 AM -2.2 °F -15.6 °F -7.6 °F 78% 29.79 in 3.0 mi NW 6.9 mph - N/A Snow Light Snow
5:53 AM -2.2 °F -15.6 °F -7.6 °F 78% 29.79 in 3.0 mi NW 6.9 mph - N/A Snow Light Snow
6:13 AM -2.2 °F -14.2 °F -7.6 °F 78% 29.80 in 7.0 mi NW 5.8 mph - N/A Snow Light Snow
6:33 AM -2.2 °F -14.2 °F -9.4 °F 71% 29.81 in 4.0 mi NW 5.8 mph - N/A Snow Light Snow
6:53 AM -2.2 °F -14.2 °F -9.4 °F 71% 29.82 in 5.0 mi NW 5.8 mph - N/A Snow Light Snow
7:13 AM -4.0 °F -16.3 °F -9.4 °F 78% 29.83 in 4.0 mi NW 5.8 mph - N/A Snow Light Snow
7:33 AM -4.0 °F -17.8 °F -9.4 °F 78% 29.84 in 4.0 mi NW 6.9 mph - N/A Snow Light Snow
7:53 AM -4.0 °F -16.3 °F -9.4 °F 78% 29.85 in 7.0 mi WNW 5.8 mph - N/A Snow Light Snow
8:13 AM -4.0 °F -14.6 °F -9.4 °F 78% 29.86 in 2.5 mi NW 4.6 mph - N/A Snow Light Snow
8:34 AM -4.0 °F -14.6 °F -9.4 °F 78% 29.87 in 7.0 mi NW 4.6 mph - N/A Snow Light Snow
8:53 AM -4.0 °F -19.0 °F -9.4 °F 78% 29.88 in 7.0 mi NW 8.1 mph - N/A   Scattered Clouds
9:18 AM -2.2 °F -15.6 °F -9.4 °F 71% 29.90 in 10.0 mi NNW 6.9 mph 17.3 mph N/A   Scattered Clouds
9:33 AM -2.2 °F -16.8 °F -9.4 °F 71% 29.90 in 7.0 mi NW 8.1 mph - N/A   Scattered Clouds
9:53 AM -2.2 °F -16.8 °F -9.4 °F 71% 29.91 in 10.0 mi NW 8.1 mph - N/A Snow Light Snow
10:13 AM -2.2 °F -16.8 °F -9.4 °F 71% 29.92 in 3.0 mi NNW 8.1 mph 18.4 mph N/A Snow Light Snow
10:33 AM -2.2 °F -19.9 °F -9.4 °F 71% 29.93 in 3.0 mi NW 11.5 mph 19.6 mph N/A Snow Light Snow
11:13 AM -0.4 °F -14.7 °F -9.4 °F 66% 29.95 in 4.0 mi NW 8.1 mph - N/A   Haze
11:33 AM -0.4 °F -13.4 °F -9.4 °F 66% 29.95 in 5.0 mi WNW 6.9 mph - N/A   Haze
11:53 AM -0.4 °F -13.4 °F -9.4 °F 66% 29.96 in 7.0 mi NW 6.9 mph 18.4 mph N/A   Scattered Clouds
12:13 PM -0.4 °F -16.7 °F -9.4 °F 66% 29.96 in 7.0 mi NW 10.4 mph 18.4 mph N/A Snow Light Snow
12:33 PM -0.4 °F -15.7 °F -9.4 °F 66% 29.96 in 7.0 mi NW 9.2 mph 18.4 mph N/A Snow Light Snow
12:53 PM 1.4 °F -11.3 °F -9.4 °F 61% 29.97 in 7.0 mi NW 6.9 mph - N/A Snow Light Snow
1:13 PM 1.4 °F -15.3 °F -9.4 °F 61% 29.97 in 7.0 mi NW 11.5 mph 19.6 mph N/A Snow Light Snow
1:33 PM 1.4 °F -12.5 °F -7.6 °F 66% 29.97 in 7.0 mi NNW 8.1 mph 16.1 mph N/A   Scattered Clouds
1:53 PM 1.4 °F -14.5 °F -9.4 °F 61% 29.98 in 7.0 mi NW 10.4 mph 17.3 mph N/A Snow Light Snow
2:13 PM 1.4 °F -13.5 °F -9.4 °F 61% 29.98 in 10.0 mi NNW 9.2 mph 16.1 mph N/A   Clear
2:33 PM 1.4 °F -9.9 °F -9.4 °F 61% 29.98 in 10.0 mi NNW 5.8 mph 17.3 mph N/A   Scattered Clouds
2:53 PM 1.4 °F -11.3 °F -7.6 °F 66% 29.99 in 10.0 mi NW 6.9 mph 16.1 mph N/A   Scattered Clouds
3:13 PM 1.4 °F -11.3 °F -9.4 °F 61% 30.00 in 10.0 mi NW 6.9 mph - N/A   Clear
3:33 PM 1.4 °F -11.3 °F -9.4 °F 61% 30.01 in 10.0 mi WNW 6.9 mph - N/A   Clear
3:53 PM 1.4 °F -8.3 °F -9.4 °F 61% 30.02 in 10.0 mi NW 4.6 mph 18.4 mph N/A   Clear
4:13 PM -0.4 °F -15.7 °F -9.4 °F 66% 30.03 in 7.0 mi West 9.2 mph - N/A   Scattered Clouds
4:33 PM -0.4 °F -12.0 °F -11.2 °F 60% 30.03 in 10.0 mi West 5.8 mph - N/A   Scattered Clouds
4:53 PM -2.2 °F -15.6 °F -11.2 °F 66% 30.05 in 10.0 mi WNW 6.9 mph - N/A   Clear
5:13 PM -2.2 °F -16.8 °F -11.2 °F 66% 30.05 in 10.0 mi WNW 8.1 mph - N/A   Clear
5:33 PM -4.0 °F -16.3 °F -13.0 °F 65% 30.06 in 10.0 mi WNW 5.8 mph - N/A   Clear
5:53 PM -5.8 °F -19.9 °F -14.8 °F 65% 30.07 in 10.0 mi West 6.9 mph - N/A   Clear
6:13 PM -7.6 °F -18.8 °F -14.8 °F 71% 30.08 in 10.0 mi West 4.6 mph - N/A   Clear
6:33 PM -7.6 °F -22.1 °F -16.6 °F 65% 30.08 in 10.0 mi West 6.9 mph - N/A   Clear
7:13 PM -9.4 °F -24.3 °F -16.6 °F 71% 30.09 in 10.0 mi West 6.9 mph - N/A   Clear
7:33 PM -11.2 °F -24.8 °F -18.4 °F 70% 30.10 in 10.0 mi West 5.8 mph - N/A   Clear
7:53 PM -11.2 °F -26.4 °F -18.4 °F 70% 30.10 in 10.0 mi West 6.9 mph - N/A   Clear
8:13 PM -13.0 °F -25.1 °F -18.4 °F 77% 30.11 in 10.0 mi West 4.6 mph - N/A   Clear
8:33 PM -13.0 °F -28.6 °F -20.2 °F 70% 30.11 in 10.0 mi West 6.9 mph - N/A   Clear
8:53 PM -14.8 °F -29.1 °F -20.2 °F 77% 30.11 in 10.0 mi WNW 5.8 mph - N/A   Clear
9:13 PM -14.8 °F -27.2 °F -20.2 °F 77% 30.12 in 10.0 mi West 4.6 mph - N/A   Clear
9:33 PM -14.8 °F -27.2 °F -23.8 °F 64% 30.12 in 10.0 mi WNW 4.6 mph - N/A   Clear
9:53 PM -16.6 °F -29.3 °F -23.8 °F 70% 30.13 in 10.0 mi WNW 4.6 mph - N/A   Clear
10:13 PM -16.6 °F -29.3 °F -23.8 °F 70% 30.13 in 10.0 mi WNW 4.6 mph - N/A   Clear
10:33 PM -16.6 °F -31.3 °F -23.8 °F 70% 30.13 in 10.0 mi West 5.8 mph - N/A   Clear
11:13 PM -18.4 °F -31.4 °F -25.6 °F 70% 30.13 in 10.0 mi WNW 4.6 mph - N/A   Clear
11:33 PM -18.4 °F - -25.6 °F 70% 30.13 in 10.0 mi Calm Calm - N/A   Clear
11:53 PM -18.4 °F -28.9 °F -25.6 °F 70% 30.13 in 10.0 mi West 3.5 mph - N/A   Clear